Wind_Speed
27 25 24 22 20 18 17 20 22 22 23 24 25 24 23 23 24 27 28 29 30 31 32 32 31 30 30 31 30 30 29 29 28 28 28 28 27 28 27 26 24 23 22 21 20 19 18 16 15 15 14 14 14 14 13 13 14 13 12 11 10 9 9
28 28 25 24 22 17 17 21 24 23 24 25 25 25 25 24 24 25 27 27 28 30 31 32 32 31 30 30 30 30 29 29 29 29 29 28 28 28 27 26 25 24 23 22 21 20 19 18 18 17 16 16 16 15 15 15 15 15 15 14 12 11 11
30 30 28 27 22 18 16 20 25 25 25 26 26 26 26 26 25 24 25 25 27 28 30 31 32 32 31 30 30 30 29 29 29 29 29 28 28 27 27 27 26 25 25 24 22 21 20 20 19 18 17 17 17 17 17 16 16 17 17 16 15 14 13
33 31 29 28 23 19 17 19 23 26 27 27 26 26 27 27 26 24 24 24 26 27 28 29 31 32 31 31 30 30 30 29 28 28 28 28 28 28 28 27 27 27 26 25 23 22 21 21 20 19 18 18 19 18 18 18 17 18 19 19 18 16 15
35 32 30 28 25 21 18 19 21 24 27 28 27 27 28 28 27 25 24 23 25 27 27 28 29 31 32 31 31 31 30 29 28 27 28 28 29 29 29 28 27 27 26 25 24 23 22 21 20 19 19 19 19 19 19 19 19 19 20 20 20 19 17
35 33 31 29 27 23 19 18 19 21 25 27 28 28 28 28 28 27 25 24 25 27 28 28 29 30 30 31 32 32 31 30 29 28 28 28 29 29 29 28 27 27 27 26 26 24 23 22 21 20 19 19 19 20 20 20 20 20 20 21 21 21 20
34 34 32 29 27 24 20 18 18 20 23 25 28 30 30 29 28 28 27 27 26 27 28 28 29 29 29 30 32 32 31 30 29 28 28 28 29 29 29 28 28 28 28 27 26 25 24 23 22 21 19 19 19 19 19 19 20 20 21 22 22 22 22
34 35 33 30 27 24 21 19 18 20 23 25 27 29 30 30 29 28 28 29 28 28 28 28 28 28 28 29 30 31 32 31 31 30 29 29 29 28 29 29 29 28 28 27 26 25 24 23 22 21 20 19 19 19 19 19 19 20 21 22 22 22 23
33 35 33 30 27 24 22 21 20 20 22 25 27 28 29 29 30 29 29 30 29 28 28 28 28 28 28 28 29 30 31 32 33 32 31 31 29 29 29 29 29 29 28 26 26 25 24 24 23 22 20 19 19 18 18 18 19 20 21 21 21 22 23
28 32 32 30 27 25 24 24 24 23 23 25 27 28 29 29 30 30 30 30 30 30 29 29 28 28 28 28 28 28 30 31 33 33 33 32 31 29 29 29 29 29 28 27 26 26 25 24 24 22 21 20 19 18 18 17 18 18 19 20 21 22 23
23 27 29 29 27 26 26 26 25 23 23 26 28 28 29 29 29 30 31 30 30 31 31 30 29 28 27 27 28 29 29 30 32 33 34 33 32 31 30 30 30 29 29 28 28 27 26 25 25 23 21 20 19 18 17 17 17 18 18 19 20 22 23
22 23 26 28 29 28 27 27 26 23 22 25 28 28 29 30 30 31 31 31 31 31 32 31 31 29 28 27 28 28 28 29 30 32 33 33 32 32 32 31 30 29 29 29 29 28 27 27 26 25 22 21 20 19 18 18 18 18 18 18 20 21 22
21 23 25 27 28 29 28 28 27 25 22 22 24 27 28 30 30 31 31 32 32 32 32 32 32 30 28 28 28 28 27 27 28 30 31 32 33 32 33 32 31 30 29 30 30 29 28 27 27 26 23 22 21 20 19 20 20 19 18 19 19 20 21
18 21 25 27 28 29 30 27 25 25 24 23 23 25 27 30 31 31 31 32 33 33 32 32 32 31 29 29 28 27 26 25 26 28 29 31 32 33 33 33 32 31 30 30 30 29 28 28 27 26 25 23 23 22 22 21 21 20 19 19 19 19 20
11 13 17 23 26 27 27 26 25 24 24 23 23 24 26 29 32 33 32 33 34 34 33 33 32 32 31 30 29 27 25 24 25 26 28 30 32 33 33 32 32 31 30 30 30 29 28 28 28 27 26 25 24 24 24 23 23 21 20 19 19 18 19
10 8 10 14 20 23 23 24 25 25 25 23 23 25 26 28 31 33 32 32 33 35 35 34 33 32 32 31 30 28 26 24 25 25 27 29 30 31 32 32 32 31 31 30 30 29 29 29 28 27 26 26 25 25 25 24 23 22 21 20 19 18 19
13 12 10 11 14 18 21 23 25 27 27 26 24 24 25 27 30 32 33 32 33 34 35 34 33 32 32 31 30 29 27 25 24 25 26 27 28 29 31 31 32 32 31 30 30 29 29 29 29 28 27 27 26 26 26 25 24 23 22 21 20 20 19
15 16 16 14 13 17 20 23 27 29 30 29 26 25 25 26 29 32 33 32 31 33 35 35 34 33 32 31 31 30 28 27 26 25 25 26 26 28 29 30 31 31 30 30 29 29 29 29 29 29 28 28 27 27 27 25 24 23 23 23 22 22 21
15 17 18 17 18 20 22 24 29 33 33 32 29 27 26 26 28 30 32 31 32 34 36 36 35 33 33 32 30 29 29 29 28 27 26 25 25 26 28 29 29 29 29 29 29 29 29 29 29 29 29 28 28 28 27 26 25 24 24 24 24 24 24
16 16 17 18 20 22 24 26 30 35 37 35 33 29 28 27 27 29 32 33 34 36 37 36 35 34 33 32 29 28 30 31 31 29 27 26 25 25 26 27 27 28 28 29 30 30 30 30 29 29 29 29 29 28 27 26 26 25 24 25 26 26 26
18 18 17 18 19 21 25 28 30 35 39 38 36 34 33 31 28 28 31 34 35 36 37 36 35 35 34 31 27 27 29 31 32 31 29 27 26 26 26 27 28 28 29 29 30 30 30 30 30 30 29 30 29 28 27 27 26 24 24 25 26 28 28
21 19 18 18 18 21 27 31 31 36 41 41 40 39 37 34 31 28 30 34 35 36 37 37 36 35 33 29 25 24 27 30 31 31 30 29 28 28 28 28 29 29 29 29 29 30 31 31 31 31 30 30 30 29 28 27 26 25 24 25 26 28 30
22 20 20 19 19 21 29 34 34 38 44 45 44 42 40 38 34 31 30 32 35 36 37 38 37 36 33 28 22 21 23 27 29 30 30 30 30 30 29 29 29 29 29 29 30 31 31 31 31 31 31 30 30 30 29 28 26 26 25 25 27 29 31
23 22 22 21 19 21 30 37 38 41 44 46 48 46 43 41 38 34 31 31 35 37 38 39 38 36 32 27 23 22 22 24 25 26 27 27 27 28 28 28 28 28 28 29 29 30 30 30 30 30 30 30 30 30 30 28 27 27 27 27 28 29 31
25 24 24 23 21 20 27 35 39 43 44 46 48 48 47 45 42 38 34 32 35 38 41 41 38 35 31 27 25 26 26 26 25 25 25 24 24 24 24 24 25 25 26 27 27 28 29 28 29 29 29 29 29 29 29 28 28 28 28 28 29 30 31
26 25 25 25 22 19 23 29 34 40 44 46 47 47 48 48 46 41 36 34 35 39 41 40 37 34 31 28 28 30 31 30 29 27 26 25 25 24 24 23 23 23 24 24 25 26 26 26 26 27 27 27 27 27 27 27 27 27 27 28 29 31 32
25 24 24 23 20 18 23 27 28 32 38 44 47 48 49 51 49 43 38 36 37 39 41 39 38 36 32 30 31 33 34 33 33 32 31 30 29 28 28 27 26 25 25 25 25 25 25 25 25 25 25 25 25 25 25 25 25 26 26 27 29 31 32
24 22 21 19 17 18 24 26 26 27 30 35 42 47 50 51 48 42 40 39 38 40 42 40 39 37 34 33 34 35 34 34 34 34 34 34 33 32 31 31 30 30 29 28 28 27 27 26 26 26 25 25 26 26 26 25 25 25 26 27 28 30 32
22 21 20 17 16 20 26 26 26 27 27 29 35 40 45 46 43 42 41 39 38 42 43 41 39 39 37 36 37 36 35 34 34 34 35 34 33 33 33 33 33 32 32 32 32 31 31 30 30 29 28 28 28 28 27 26 25 25 25 26 27 29 31
21 19 18 15 15 21 27 27 26 28 29 30 32 35 38 40 41 42 40 38 39 43 43 41 41 41 40 39 38 37 35 34 34 34 34 34 33 34 34 34 35 34 34 35 35 35 34 34 33 32 31 31 30 29 28 27 26 25 25 26 27 28 29
20 18 17 14 16 23 27 29 29 30 31 32 33 35 37 39 39 39 38 38 41 43 43 43 42 40 39 38 37 35 34 33 33 32 32 31 32 32 33 34 34 35 35 36 36 36 36 35 35 34 33 33 32 32 31 29 28 28 28 27 27 28 29
20 17 16 14 17 24 28 30 32 32 33 34 35 36 37 38 38 38 39 40 42 43 43 42 40 39 37 35 34 32 31 29 29 28 27 27 27 28 29 30 30 31 32 32 33 33 33 33 33 33 33 33 33 33 33 32 32 31 31 31 31 31 31
20 17 16 16 19 25 28 30 33 34 35 35 36 36 37 37 38 39 41 41 41 41 41 40 39 37 35 33 31 29 27 25 24 23 23 23 23 24 24 25 25 25 26 26 27 27 27 28 28 29 29 30 30 30 29 29 29 30 31 31 32 33 33
17 16 16 17 22 26 28 30 32 34 36 38 38 38 38 39 40 41 41 41 40 40 40 38 36 34 33 31 28 26 24 23 21 21 21 20 20 20 20 20 20 19 19 20 20 20 21 21 22 23 23 24 24 24 24 24 25 26 26 27 28 30 32
14 15 15 17 22 26 29 31 33 34 37 39 40 40 41 41 42 41 40 40 40 39 38 36 33 32 32 29 27 25 23 21 20 20 19 19 18 18 17 17 16 15 15 15 16 15 16 16 17 18 19 19 20 20 21 21 22 22 23 24 25 26 28
16 14 14 16 20 25 28 32 34 35 38 40 40 42 43 42 42 41 40 40 40 39 37 34 32 32 32 30 27 25 23 21 20 21 21 20 20 19 18 16 15 14 15 15 15 14 14 14 15 16 17 18 19 21 21 21 22 22 22 23 24 25 25
19 18 18 17 18 21 25 30 34 36 38 40 41 43 43 42 42 41 40 40 40 39 36 34 33 33 33 32 29 27 24 23 24 24 24 23 23 21 19 17 17 17 17 18 17 16 15 16 17 17 18 19 21 22 22 22 23 23 22 23 24 24 24
20 20 21 20 20 21 22 26 32 35 37 40 42 44 44 43 42 41 41 40 40 38 37 36 35 35 35 33 31 28 26 26 27 26 25 25 24 23 21 20 20 20 20 21 21 20 20 20 20 20 21 22 23 24 24 23 24 24 24 25 25 25 25
Wind_Direction
238 240 241 243 245 247 238 227 225 223 221 224 226 226 229 229 227 225 224 223 221 221 219 218 219 219 218 219 219 218 217 215 215 216 218 218 216 215 215 215 216 215 215 213 211 211 210 211 213 214 217 219 219 221 226 230 231 230 226 221 217 213 208
238 238 238 240 242 247 242 230 228 226 223 224 224 224 227 228 228 226 225 223 222 222 222 221 221 220 219 219 219 219 218 217 216 216 217 217 217 217 216 215 215 215 215 213 212 212 213 214 215 217 220 222 222 222 225 229 230 231 229 226 221 216 214
236 236 237 238 240 245 240 229 230 230 227 227 224 223 225 226 226 226 226 224 222 221 221 221 222 222 220 219 219 220 219 218 217 217 217 217 217 217 217 216 215 215 216 215 214 213 214 216 218 221 224 225 226 225 225 227 229 230 230 228 225 220 216
235 235 237 238 239 242 232 221 226 230 229 228 226 224 225 226 227 226 225 224 223 222 222 221 222 223 222 220 220 220 220 219 219 218 218 218 216 217 217 216 215 216 217 218 216 215 216 217 220 225 227 227 228 228 227 228 228 229 228 227 226 223 220
234 233 237 240 239 237 227 217 221 229 230 229 226 224 224 226 227 226 225 223 223 224 224 223 222 223 223 222 222 221 221 220 220 220 219 218 217 216 216 215 215 217 219 220 220 219 219 221 224 229 231 230 231 232 231 231 230 230 229 227 226 224 223
233 232 235 237 238 235 226 220 221 227 232 231 228 225 224 225 225 225 224 223 222 223 224 223 222 223 224 223 223 223 222 221 220 220 220 219 219 217 216 215 215 216 218 220 222 222 222 225 228 230 232 232 232 233 233 233 233 232 231 230 226 224 224
234 234 233 233 236 234 225 221 220 223 228 229 228 226 224 224 224 223 223 223 222 222 222 222 221 222 223 223 224 224 223 221 221 220 220 220 220 219 218 217 215 216 218 219 222 224 224 226 229 231 231 232 232 233 234 234 235 235 234 233 229 226 225
235 234 232 232 232 230 225 221 219 221 222 223 228 229 226 223 223 223 222 223 224 223 222 222 221 221 221 222 224 224 224 222 221 221 221 221 221 220 219 218 217 217 218 219 221 223 225 227 229 231 231 232 233 233 234 234 235 236 236 236 233 229 227
235 234 232 230 229 229 230 227 224 226 224 222 226 228 226 223 222 221 222 223 225 225 225 223 222 222 221 222 223 224 224 223 222 222 221 222 222 221 220 220 219 219 218 218 220 223 225 227 230 231 232 232 234 234 235 235 235 237 238 237 235 232 229
234 234 231 229 230 233 236 234 232 232 229 224 223 223 224 224 221 220 221 222 224 225 226 226 225 224 221 221 222 224 224 224 224 223 222 222 223 221 221 222 221 221 219 218 219 222 225 227 230 232 232 233 233 233 235 237 237 239 239 238 236 234 231
224 229 229 228 230 234 236 236 235 233 230 227 224 223 223 223 220 219 220 222 223 223 224 226 227 226 223 220 220 222 224 225 224 224 223 224 224 223 223 224 223 222 220 219 220 222 225 228 231 233 233 233 235 235 236 238 239 240 240 240 238 235 232
222 226 228 228 232 236 239 238 235 235 233 227 223 220 220 220 220 219 218 219 221 221 221 224 227 228 226 222 221 221 223 224 225 225 224 224 225 224 224 225 225 224 222 221 222 224 226 228 232 235 235 235 236 236 235 237 240 240 240 239 238 236 234
225 228 229 230 232 234 236 237 237 237 236 228 220 215 214 216 218 218 217 216 218 220 220 221 225 228 227 225 224 223 222 224 225 226 225 225 225 225 225 226 227 226 225 224 225 226 228 230 233 236 236 236 236 237 235 236 239 240 239 238 238 237 235
224 229 231 231 230 231 232 233 234 235 233 229 222 213 209 211 215 217 217 215 215 217 219 220 223 228 228 227 227 226 223 224 225 226 225 225 226 226 227 227 227 228 227 227 228 230 231 232 234 237 237 237 237 237 236 235 237 240 239 238 238 237 235
215 228 235 233 230 231 231 229 229 229 229 228 222 214 209 208 211 214 215 214 213 214 216 218 221 226 228 228 227 226 224 223 223 223 224 224 225 227 228 228 229 229 228 229 230 232 233 235 236 237 238 238 238 238 238 236 237 239 241 240 240 238 234
220 230 244 241 233 230 229 227 227 226 226 227 224 217 211 206 208 213 215 214 212 212 214 216 219 224 228 229 228 226 223 222 223 222 222 223 224 225 228 228 229 230 230 230 231 233 235 236 238 239 239 239 239 239 240 239 238 239 241 241 241 238 235
229 225 228 238 237 232 230 229 230 229 228 228 225 221 215 208 207 211 214 214 212 211 212 214 217 222 226 229 230 227 224 221 222 222 222 222 223 224 226 228 229 230 231 231 231 233 235 237 238 240 240 240 240 241 241 241 240 239 239 240 240 238 235
229 222 219 221 227 233 236 235 234 233 230 228 227 225 220 211 207 210 214 214 211 209 210 212 215 218 222 227 229 228 225 221 221 222 222 222 222 223 225 227 229 230 232 232 232 233 235 237 238 239 240 241 241 241 243 243 242 240 238 238 239 238 236
226 221 221 223 224 228 233 237 237 234 231 229 227 225 221 216 211 212 215 213 209 207 208 210 213 214 218 224 227 228 226 222 221 222 223 222 222 223 225 227 228 230 231 232 233 234 235 236 237 238 239 241 241 242 243 244 244 242 240 238 237 237 237
228 227 229 229 228 229 233 237 237 234 232 231 228 226 224 221 216 213 213 212 209 206 206 207 209 210 215 220 224 226 227 225 223 223 224 223 223 223 224 226 227 227 229 231 232 232 233 235 236 237 238 240 242 242 243 243 243 242 241 240 239 237 237
241 246 243 238 238 240 240 239 235 233 233 232 231 231 229 226 221 215 212 213 211 207 204 204 205 208 212 215 218 223 226 226 225 225 225 224 223 224 224 224 225 225 226 228 229 231 232 234 235 236 237 239 242 243 243 243 243 242 240 240 240 239 239
250 253 251 252 256 249 239 235 233 234 234 232 232 234 231 226 223 218 213 214 213 207 202 200 202 206 209 209 211 218 223 225 225 225 225 225 224 223 222 222 223 224 224 226 228 229 231 232 233 235 236 238 240 242 242 242 242 241 239 239 240 240 240
253 256 259 265 271 253 235 230 230 231 231 230 231 232 230 225 223 221 217 215 212 206 200 199 202 206 205 202 205 211 213 215 219 220 221 222 221 221 221 221 221 222 223 224 227 228 230 230 232 234 236 237 239 241 242 241 241 239 238 237 238 239 241
256 263 267 271 278 259 235 228 226 225 225 227 228 229 227 224 222 222 220 216 211 205 199 199 203 204 201 199 202 205 203 202 205 207 209 211 213 215 218 219 220 221 223 224 227 229 230 231 233 234 236 237 238 239 240 240 239 237 236 235 236 237 239
260 268 271 274 280 265 237 227 225 223 223 224 224 223 223 222 221 222 221 216 210 203 199 200 203 202 199 198 203 207 208 207 204 202 202 203 205 208 211 214 217 219 222 225 227 230 232 232 233 234 234 235 236 237 238 238 237 236 234 234 235 236 238
261 266 269 274 280 266 236 227 226 224 223 223 222 220 218 217 220 223 220 214 209 203 200 202 203 199 197 200 206 212 215 215 214 213 213 211 210 210 210 211 212 214 217 220 223 226 228 229 229 230 231 232 234 236 236 236 236 235 233 233 234 235 237
261 265 268 275 279 256 227 219 219 219 220 220 220 218 215 215 220 221 216 211 208 203 201 202 200 196 197 202 210 215 218 220 221 221 221 221 221 220 219 218 218 218 219 220 221 224 225 226 227 228 229 231 233 235 236 234 234 234 232 232 233 234 236
260 265 267 275 271 238 217 211 210 210 212 214 215 214 213 215 218 216 212 212 208 202 199 199 196 195 199 206 212 217 220 222 224 224 225 226 226 226 226 226 225 226 226 226 227 228 229 229 230 230 230 231 232 233 234 232 231 231 231 230 231 233 236
260 264 265 271 258 226 210 206 205 203 203 204 204 205 208 211 212 211 212 212 206 199 197 195 194 197 201 208 214 218 221 224 226 227 228 229 230 230 231 231 231 232 232 232 232 233 234 234 234 233 232 232 232 232 233 232 230 230 231 231 232 234 237
259 261 261 263 246 219 205 200 199 195 193 194 195 197 200 203 205 208 210 208 201 197 194 194 197 200 204 210 215 220 223 226 227 228 230 230 231 232 232 233 234 234 234 235 236 236 236 236 235 235 234 234 233 234 234 234 233 232 232 233 234 235 237
256 257 257 252 232 214 201 195 194 192 189 189 190 191 194 198 201 203 202 199 196 194 194 197 200 204 208 212 216 219 221 223 224 225 227 228 229 231 232 232 233 234 234 235 236 237 237 237 236 236 237 236 237 237 237 237 237 235 235 235 236 237 238
254 251 250 240 219 207 198 192 192 192 190 189 189 189 192 194 194 193 192 192 193 194 196 200 202 205 207 210 212 213 215 216 218 220 222 224 226 228 231 232 234 236 237 238 239 240 241 241 241 241 241 241 241 241 241 241 241 241 240 239 239 239 240
253 244 237 227 212 202 195 190 191 191 189 188 187 188 189 188 187 186 187 189 191 194 197 200 201 203 205 205 204 204 204 206 209 212 215 220 224 228 231 234 236 238 239 241 243 244 246 247 247 248 248 247 248 248 248 248 247 246 246 245 244 244 244
249 242 228 216 208 200 191 187 189 189 187 186 185 184 184 183 182 183 185 187 190 193 196 200 201 202 201 197 194 194 196 200 205 209 214 219 223 226 229 231 232 234 237 240 244 247 250 251 251 251 251 250 250 249 247 246 245 245 245 245 245 247 247
232 235 227 214 205 199 189 184 185 186 185 185 183 182 182 181 181 182 185 188 190 192 196 200 200 198 195 192 191 194 197 199 202 207 212 216 219 221 222 223 224 225 228 232 236 241 244 243 243 244 245 245 244 242 240 240 240 241 240 240 240 241 243
214 218 218 212 205 199 190 183 181 182 183 183 182 181 181 181 182 184 187 189 190 191 194 197 196 194 192 191 192 194 196 199 203 208 211 212 214 216 216 215 218 219 220 222 225 230 236 238 237 237 237 236 237 237 236 236 237 237 237 239 240 241 242
208 208 207 206 204 201 194 185 180 181 182 182 182 181 181 182 184 186 188 189 189 190 193 195 195 194 194 195 197 201 206 210 213 214 214 213 214 215 214 216 220 223 225 226 225 225 230 235 238 239 238 237 237 237 236 236 238 239 240 243 245 247 248
195 203 207 205 201 201 199 190 184 182 182 182 182 181 181 183 184 185 187 189 189 191 193 195 196 197 198 201 205 210 214 214 213 214 215 215 217 219 221 224 229 233 236 239 239 237 235 235 236 239 241 243 244 244 242 242 243 244 245 247 249 252 253
Height
3151 3153 3154 3157 3159 3161 3162 3163 3165 3167 3168 3170 3172 3175 3176 3178 3180 3182 3184 3186 3189 3191 3193 3195 3197 3199 3201 3203 3205 3207 3209 3211 3213 3215 3217 3219 3221 3223 3224 3226 3228 3229 3231 3232 3234 3236 3237 3238 3239 3240 3241 3241 3242 3243 3244 3244 3245 3246 3247 3248 3249 3251 3252
3148 3150 3152 3154 3156 3159 3160 3161 3163 3165 3166 3168 3170 3172 3174 3175 3177 3180 3182 3184 3187 3189 3192 3194 3195 3197 3199 3201 3203 3205 3207 3209 3211 3213 3215 3217 3219 3221 3223 3224 3226 3227 3229 3230 3232 3234 3235 3236 3237 3238 3239 3240 3241 3242 3242 3243 3244 3245 3246 3247 3248 3250 3251
3145 3147 3149 3151 3154 3157 3158 3159 3161 3163 3165 3166 3168 3170 3171 3173 3175 3178 3180 3182 3185 3187 3189 3191 3193 3195 3198 3199 3201 3203 3205 3207 3209 3211 3213 3215 3217 3219 3221 3222 3224 3225 3227 3228 3230 3232 3233 3234 3236 3237 3238 3239 3239 3240 3241 3242 3243 3244 3245 3246 3247 3248 3250
3142 3145 3147 3149 3152 3154 3155 3157 3158 3160 3162 3164 3166 3168 3169 3171 3173 3176 3178 3181 3183 3185 3187 3189 3191 3193 3195 3197 3199 3201 3203 3205 3207 3209 3211 3213 3215 3217 3218 3220 3222 3223 3225 3226 3228 3230 3231 3232 3234 3235 3236 3237 3238 3239 3240 3240 3241 3242 3243 3244 3246 3247 3248
3139 3142 3145 3146 3149 3151 3152 3154 3156 3158 3160 3162 3164 3166 3168 3170 3172 3174 3176 3178 3181 3183 3185 3187 3189 3191 3193 3195 3197 3199 3201 3203 3205 3207 3209 3211 3213 3214 3216 3218 3220 3221 3223 3225 3226 3228 3229 3231 3232 3233 3235 3236 3237 3237 3238 3239 3240 3241 3242 3243 3244 3246 3247
3136 3139 3142 3144 3146 3148 3150 3152 3154 3156 3158 3160 3162 3164 3166 3168 3169 3171 3174 3176 3178 3180 3182 3185 3187 3189 3191 3193 3195 3197 3199 3201 3203 3205 3207 3209 3210 3212 3214 3216 3218 3220 3221 3223 3224 3226 3227 3229 3230 3232 3233 3234 3235 3236 3237 3237 3238 3239 3240 3241 3243 3244 3246
3134 3136 3139 3142 3144 3146 3148 3149 3151 3154 3156 3157 3159 3161 3163 3165 3167 3169 3171 3173 3175 3177 3179 3182 3184 3186 3188 3190 3192 3194 3197 3199 3201 3203 3205 3206 3208 3210 3212 3214 3216 3217 3219 3221 3222 3224 3226 3227 3228 3230 3231 3232 3233 3234 3235 3236 3236 3237 3238 3239 3241 3243 3244
3131 3133 3136 3139 3142 3144 3145 3146 3149 3151 3152 3154 3155 3158 3161 3163 3165 3167 3169 3171 3172 3174 3177 3179 3181 3183 3185 3188 3190 3192 3194 3197 3199 3201 3203 3204 3206 3208 3210 3212 3214 3215 3217 3219 3220 3222 3224 3225 3226 3228 3229 3230 3231 3232 3233 3234 3235 3236 3236 3237 3239 3241 3242
3128 3130 3133 3137 3139 3141 3143 3144 3146 3147 3149 3151 3152 3155 3158 3160 3162 3165 3166 3168 3170 3172 3174 3176 3178 3180 3183 3185 3187 3190 3192 3194 3196 3198 3200 3202 3204 3206 3208 3210 3212 3213 3215 3217 3219 3220 3222 3223 3225 3226 3227 3228 3229 3230 3231 3232 3233 3234 3234 3236 3237 3239 3240
3125 3127 3130 3134 3136 3138 3140 3141 3142 3143 3145 3147 3149 3152 3154 3157 3160 3162 3164 3166 3168 3169 3171 3173 3175 3177 3180 3182 3185 3187 3189 3191 3193 3196 3198 3200 3202 3204 3206 3208 3210 3211 3213 3215 3216 3218 3220 3221 3223 3224 3225 3226 3227 3229 3230 3230 3231 3232 3233 3234 3235 3236 3238
3121 3123 3127 3130 3133 3134 3136 3137 3139 3141 3143 3145 3147 3149 3151 3153 3156 3159 3161 3163 3165 3167 3169 3171 3173 3175 3177 3180 3182 3184 3186 3188 3191 3193 3195 3197 3200 3202 3204 3205 3207 3209 3211 3213 3214 3216 3218 3219 3220 3222 3223 3224 3226 3227 3228 3229 3230 3230 3231 3232 3233 3234 3236
3118 3120 3124 3127 3129 3131 3133 3134 3136 3138 3140 3142 3143 3145 3147 3150 3152 3155 3158 3160 3163 3165 3166 3168 3170 3172 3174 3177 3179 3181 3183 3185 3188 3190 3192 3195 3197 3200 3202 3203 3205 3207 3209 3211 3212 3214 3215 3217 3218 3219 3221 3223 3224 3225 3226 3227 3228 3229 3229 3230 3231 3232 3234
3115 3118 3120 3122 3125 3127 3129 3131 3132 3134 3136 3138 3139 3141 3144 3146 3149 3151 3154 3157 3160 3162 3164 3166 3167 3169 3172 3174 3176 3178 3180 3183 3185 3187 3190 3192 3195 3197 3199 3200 3202 3205 3207 3209 3210 3212 3213 3215 3216 3217 3219 3221 3222 3223 3224 3225 3226 3227 3228 3228 3229 3231 3232
3112 3114 3116 3118 3120 3122 3125 3127 3129 3131 3133 3134 3136 3138 3140 3143 3145 3148 3150 3153 3156 3159 3161 3163 3165 3167 3169 3171 3173 3175 3178 3180 3182 3185 3187 3190 3192 3194 3196 3198 3200 3202 3204 3206 3208 3210 3211 3213 3214 3215 3217 3218 3220 3221 3222 3223 3224 3225 3226 3227 3228 3229 3230
3109 3112 3113 3115 3117 3119 3121 3123 3125 3127 3129 3131 3133 3135 3137 3139 3141 3144 3147 3150 3153 3155 3158 3160 3162 3164 3166 3168 3170 3172 3175 3178 3179 3182 3184 3186 3189 3191 3193 3195 3197 3199 3202 3204 3206 3208 3209 3211 3212 3213 3215 3216 3217 3218 3219 3220 3222 3223 3224 3225 3226 3227 3228
3106 3109 3111 3112 3113 3115 3118 3120 3122 3124 3126 3128 3130 3132 3134 3136 3138 3141 3143 3146 3149 3152 3154 3157 3159 3161 3163 3165 3167 3170 3172 3175 3177 3179 3181 3183 3186 3188 3190 3192 3194 3197 3199 3201 3203 3205 3207 3208 3209 3211 3212 3213 3215 3216 3217 3218 3220 3221 3222 3223 3224 3226 3227
3102 3105 3107 3109 3110 3112 3114 3116 3118 3120 3122 3125 3127 3129 3131 3134 3136 3138 3140 3142 3145 3148 3151 3154 3156 3159 3160 3162 3164 3167 3169 3172 3174 3176 3178 3180 3183 3185 3187 3190 3192 3194 3196 3198 3200 3202 3204 3205 3206 3208 3209 3211 3212 3213 3214 3216 3217 3219 3221 3222 3223 3224 3225
3099 3101 3103 3105 3107 3109 3110 3112 3114 3116 3119 3122 3124 3126 3129 3131 3134 3135 3137 3140 3142 3145 3148 3151 3153 3155 3158 3160 3161 3164 3167 3169 3171 3173 3175 3177 3180 3182 3184 3186 3189 3191 3193 3195 3197 3199 3201 3202 3204 3205 3206 3208 3209 3210 3212 3213 3215 3217 3219 3220 3221 3222 3223
3096 3098 3100 3102 3104 3106 3108 3110 3111 3113 3116 3119 3121 3124 3126 3129 3131 3133 3135 3137 3139 3141 3144 3147 3150 3152 3155 3157 3159 3161 3164 3166 3168 3170 3173 3175 3177 3179 3181 3183 3186 3188 3190 3192 3194 3196 3198 3199 3200 3202 3203 3205 3206 3207 3209 3211 3212 3214 3216 3218 3219 3220 3221
3093 3095 3097 3099 3101 3103 3104 3106 3107 3110 3113 3116 3118 3121 3123 3126 3128 3130 3132 3133 3136 3138 3141 3144 3147 3149 3151 3154 3156 3158 3161 3163 3165 3167 3170 3172 3174 3176 3178 3181 3183 3185 3187 3189 3191 3193 3194 3196 3197 3199 3200 3202 3203 3205 3206 3208 3209 3211 3213 3215 3216 3217 3218
3090 3092 3093 3095 3097 3099 3100 3101 3103 3106 3109 3113 3116 3118 3119 3122 3124 3127 3128 3130 3133 3135 3138 3141 3144 3146 3148 3151 3154 3156 3158 3160 3162 3164 3167 3169 3171 3173 3175 3178 3179 3182 3184 3186 3188 3189 3191 3193 3194 3195 3197 3199 3200 3201 3203 3205 3206 3208 3210 3212 3213 3214 3215
3088 3089 3090 3091 3092 3093 3095 3096 3100 3103 3106 3109 3112 3114 3116 3119 3121 3124 3126 3128 3130 3132 3135 3138 3141 3143 3146 3149 3151 3153 3155 3157 3159 3161 3164 3166 3168 3170 3172 3174 3176 3178 3181 3183 3184 3186 3188 3189 3191 3192 3194 3196 3197 3198 3200 3202 3203 3205 3207 3209 3210 3211 3211
3084 3085 3087 3087 3088 3088 3090 3092 3095 3098 3101 3103 3106 3109 3112 3115 3117 3120 3123 3125 3127 3130 3133 3135 3138 3141 3144 3146 3149 3151 3153 3155 3157 3159 3161 3163 3165 3167 3169 3171 3173 3176 3178 3180 3181 3183 3184 3186 3188 3189 3191 3193 3194 3195 3196 3199 3200 3202 3204 3205 3206 3207 3208
3081 3082 3083 3083 3084 3084 3084 3086 3089 3092 3095 3098 3101 3105 3109 3111 3114 3117 3120 3122 3124 3127 3130 3133 3135 3138 3141 3144 3147 3150 3152 3153 3155 3157 3158 3160 3162 3164 3167 3169 3171 3173 3175 3177 3179 3180 3182 3184 3185 3187 3188 3190 3191 3192 3193 3195 3197 3198 3200 3201 3202 3203 3204
3078 3079 3079 3079 3079 3079 3079 3080 3083 3086 3090 3093 3096 3100 3104 3107 3111 3114 3117 3120 3122 3124 3127 3130 3133 3136 3139 3142 3145 3148 3150 3151 3153 3155 3157 3159 3160 3162 3164 3166 3169 3171 3172 3174 3176 3177 3179 3181 3182 3184 3185 3186 3187 3188 3190 3192 3193 3194 3196 3198 3199 3200 3201
3075 3076 3076 3076 3075 3075 3074 3075 3078 3081 3084 3088 3092 3096 3100 3104 3107 3111 3115 3117 3119 3122 3125 3128 3131 3134 3137 3140 3143 3145 3147 3149 3151 3153 3155 3157 3159 3160 3162 3164 3166 3168 3170 3171 3173 3174 3176 3178 3179 3180 3182 3183 3184 3185 3187 3188 3190 3191 3193 3194 3195 3196 3197
3072 3073 3073 3072 3071 3071 3071 3073 3074 3076 3079 3083 3087 3091 3096 3100 3103 3108 3111 3113 3116 3120 3123 3126 3129 3132 3134 3138 3140 3143 3145 3147 3149 3151 3153 3155 3156 3158 3160 3162 3164 3165 3167 3168 3170 3172 3173 3175 3176 3177 3179 3180 3181 3182 3183 3185 3187 3188 3189 3191 3192 3193 3194
3069 3070 3070 3069 3068 3068 3069 3070 3071 3073 3076 3079 3082 3087 3092 3096 3100 3104 3108 3111 3115 3119 3121 3124 3127 3129 3132 3135 3138 3140 3142 3144 3146 3149 3150 3152 3154 3155 3157 3159 3161 3162 3164 3166 3167 3169 3170 3172 3173 3174 3176 3177 3178 3179 3180 3182 3183 3185 3186 3187 3188 3189 3190
3066 3067 3067 3067 3066 3066 3067 3068 3069 3071 3074 3077 3079 3083 3088 3092 3097 3102 3106 3110 3113 3116 3118 3122 3125 3127 3129 3132 3135 3137 3140 3142 3144 3146 3147 3149 3151 3153 3154 3156 3158 3159 3160 3162 3164 3165 3167 3168 3170 3171 3172 3174 3175 3176 3177 3178 3180 3182 3183 3184 3185 3186 3187
3063 3064 3064 3064 3064 3064 3065 3066 3067 3069 3072 3074 3078 3081 3086 3090 3095 3100 3104 3108 3110 3113 3116 3119 3122 3123 3126 3129 3132 3134 3137 3139 3141 3143 3145 3146 3148 3150 3151 3153 3154 3156 3157 3159 3160 3162 3163 3165 3166 3168 3169 3170 3172 3173 3174 3176 3177 3179 3180 3181 3182 3183 3184
3060 3061 3062 3062 3062 3063 3063 3064 3066 3068 3070 3073 3076 3080 3084 3089 3093 3098 3101 3104 3107 3110 3113 3116 3118 3120 3123 3126 3129 3132 3134 3136 3138 3140 3142 3143 3145 3147 3148 3150 3151 3152 3154 3155 3157 3158 3159 3161 3163 3164 3165 3167 3168 3170 3171 3173 3174 3175 3177 3178 3179 3180 3181
3057 3059 3060 3060 3061 3062 3062 3063 3064 3067 3069 3072 3075 3079 3083 3087 3091 3094 3097 3101 3104 3107 3110 3113 3116 3118 3121 3124 3126 3129 3132 3134 3136 3138 3139 3141 3142 3144 3145 3147 3148 3149 3151 3153 3154 3155 3157 3158 3159 3161 3162 3163 3165 3166 3167 3169 3170 3172 3173 3174 3175 3176 3177
3055 3057 3058 3059 3059 3060 3061 3062 3063 3065 3068 3071 3074 3077 3081 3084 3088 3091 3095 3098 3102 3105 3108 3111 3113 3116 3119 3121 3124 3127 3130 3132 3134 3136 3137 3139 3140 3141 3143 3144 3145 3147 3148 3150 3151 3152 3154 3155 3156 3158 3159 3160 3161 3163 3164 3166 3167 3168 3169 3170 3171 3172 3174
3053 3055 3056 3057 3058 3058 3059 3061 3062 3064 3067 3070 3072 3076 3079 3082 3086 3089 3093 3096 3099 3102 3106 3109 3111 3114 3117 3120 3123 3125 3128 3130 3132 3134 3135 3137 3138 3139 3141 3142 3143 3144 3146 3147 3148 3150 3151 3152 3154 3155 3156 3157 3158 3160 3161 3162 3163 3164 3165 3166 3167 3168 3169
3052 3053 3054 3055 3057 3057 3058 3059 3061 3064 3066 3068 3071 3074 3077 3081 3084 3087 3090 3094 3097 3101 3104 3107 3110 3113 3116 3118 3121 3123 3125 3127 3130 3131 3133 3134 3136 3137 3138 3140 3141 3142 3144 3145 3146 3147 3149 3150 3151 3152 3153 3154 3156 3156 3157 3159 3160 3161 3161 3162 3163 3164 3164
3051 3052 3053 3054 3055 3056 3057 3058 3060 3062 3065 3068 3070 3073 3076 3079 3082 3085 3088 3091 3095 3098 3102 3105 3108 3110 3113 3116 3119 3121 3123 3125 3127 3129 3131 3132 3134 3135 3136 3138 3139 3141 3142 3143 3144 3145 3147 3148 3149 3150 3151 3152 3153 3153 3154 3155 3156 3157 3157 3158 3159 3160 3160
3050 3051 3052 3053 3054 3055 3056 3057 3058 3061 3063 3066 3069 3072 3075 3078 3081 3083 3086 3090 3093 3096 3099 3102 3105 3108 3111 3114 3116 3119 3121 3123 3125 3127 3128 3130 3131 3133 3134 3136 3137 3139 3140 3141 3142 3143 3144 3145 3146 3147 3148 3149 3150 3150 3151 3152 3153 3154 3154 3155 3156 3156 3157
3048 3049 3050 3052 3053 3054 3055 3056 3057 3059 3062 3064 3067 3070 3073 3076 3079 3082 3085 3088 3091 3094 3097 3100 3103 3106 3109 3112 3114 3116 3118 3120 3122 3124 3126 3127 3129 3130 3132 3133 3134 3136 3137 3138 3140 3141 3141 3142 3143 3144 3145 3146 3147 3147 3148 3149 3150 3151 3151 3152 3153 3153 3154